Wind_Speed
20 20 19 13 11 11 13 16 19 22 19 15 16 11 11 8 12 8 11 10 10 11 22 26 27 24 20 18 16 13 8 4 7 9 10 9 7 5 2 4 7 8 10 12
24 27 22 18 14 15 15 16 20 21 14 13 19 19 18 17 14 10 10 12 12 13 20 26 28 25 22 16 15 14 10 6 7 10 11 9 8 3 1 5 6 8 11 15
28 21 20 23 15 15 14 16 23 16 14 14 17 17 10 12 14 17 13 13 13 14 11 16 23 26 24 21 16 16 11 11 9 10 10 8 6 2 2 4 6 9 13 15
30 35 29 13 14 15 11 11 17 13 9 5 13 9 20 12 8 13 17 12 15 14 15 14 16 22 24 22 18 16 15 16 13 11 10 8 7 4 4 7 7 11 13 16
18 19 30 33 14 13 12 13 14 11 11 11 12 7 11 13 5 6 8 13 15 18 17 16 14 21 22 21 21 17 20 18 15 12 9 9 7 6 5 7 9 10 13 15
23 9 12 16 18 13 13 12 12 9 7 6 7 3 10 10 4 4 6 10 15 20 21 18 16 18 23 23 23 22 23 20 18 16 13 9 6 6 5 8 9 11 13 14
19 26 23 17 16 15 14 10 4 2 1 4 11 7 12 10 7 7 6 9 15 20 23 23 23 23 24 24 25 24 23 21 18 16 14 9 6 4 6 9 11 11 13 13
14 11 26 27 25 16 17 11 5 4 3 6 11 7 16 23 11 4 4 9 16 24 24 24 22 20 22 22 24 25 25 24 22 19 16 12 9 6 8 11 13 13 13 12
7 9 8 16 21 19 16 13 12 8 10 4 8 17 17 8 9 2 3 6 14 24 23 22 22 21 20 21 22 22 23 24 23 20 17 13 9 8 10 13 14 13 12 10
12 6 4 10 15 21 15 11 6 6 3 7 5 10 11 14 10 5 3 6 14 16 20 22 21 20 20 20 20 23 23 23 20 20 18 14 11 11 13 13 14 13 12 9
23 15 6 8 11 14 16 14 9 7 6 4 4 7 8 10 8 6 5 5 9 11 12 14 23 22 20 22 23 23 26 27 25 23 21 17 15 14 13 14 14 14 13 10
19 12 15 17 17 16 13 10 7 8 7 7 4 14 11 9 5 5 7 6 4 4 10 12 14 21 22 19 21 23 23 24 22 22 25 21 19 16 14 14 15 16 14 11
10 13 8 6 12 12 10 12 13 12 9 8 5 10 12 14 15 8 6 8 12 10 9 15 17 16 16 17 17 22 21 21 21 24 24 21 20 19 16 15 15 16 16 14
4 12 11 13 9 12 16 15 13 10 6 6 7 10 8 10 13 14 13 11 11 8 9 11 14 15 16 16 17 17 23 22 22 23 24 23 22 22 18 18 17 16 18 16
2 6 8 13 13 13 17 17 12 9 6 5 7 10 11 12 12 17 17 17 16 15 10 9 10 11 11 13 16 20 19 23 22 21 22 22 24 24 22 23 20 19 20 19
2 3 5 7 11 12 14 11 9 8 6 9 12 14 16 17 17 16 15 17 18 15 17 15 12 10 11 11 13 13 14 19 23 23 22 22 23 24 24 25 21 23 22 20
4 2 2 3 10 10 8 11 7 6 6 8 13 18 19 19 17 18 19 16 21 18 15 21 19 18 15 13 14 16 16 17 21 24 26 26 26 27 26 23 18 25 23 23
6 6 9 3 4 5 8 13 11 8 5 6 11 14 14 15 16 16 17 18 20 20 19 20 24 22 16 18 20 20 21 20 20 23 24 27 28 30 28 23 23 26 27 28
10 11 7 7 9 9 10 13 11 7 6 9 14 15 17 16 15 14 15 17 21 23 23 20 22 21 17 16 14 14 15 15 17 20 22 24 26 32 31 32 40 32 31 30
12 14 16 12 15 11 10 16 12 8 13 16 10 8 9 11 8 10 14 16 19 22 28 24 25 25 22 23 21 19 16 15 15 17 18 18 22 22 23 28 24 36 31 31
12 11 10 14 11 11 15 15 12 9 9 4 9 11 12 11 14 9 8 9 11 11 18 25 27 28 28 26 25 23 22 20 20 23 22 10 11 22 23 24 19 29 29 29
15 10 9 10 7 7 11 18 13 8 4 8 12 11 13 15 16 12 10 8 3 1 2 5 8 14 26 31 29 30 28 29 29 35 39 57 65 22 21 14 15 26 27 27
11 12 10 10 6 4 9 11 11 17 12 13 17 15 15 18 18 16 13 14 6 4 3 3 1 4 6 10 15 13 13 17 18 19 27 36 38 7 6 7 9 15 19 21
15 14 13 11 3 5 8 8 10 13 15 17 20 21 22 22 19 17 18 20 22 20 16 15 12 13 17 17 13 13 12 15 17 23 28 32 28 11 3 7 9 13 12 16
11 9 9 11 2 5 6 9 10 10 12 13 21 24 23 23 19 16 17 12 15 19 21 25 29 22 21 17 18 18 18 19 21 23 20 13 12 13 6 9 11 10 13 14
16 14 12 15 12 12 13 14 15 12 12 14 15 24 27 24 22 18 17 15 9 9 10 10 9 17 23 13 12 12 13 16 16 13 6 9 15 17 11 9 9 12 11 13
Wind_Direction
221 232 238 248 275 294 312 319 319 335 322 303 296 298 293 266 259 247 218 184 162 156 179 179 166 155 158 158 157 152 145 134 146 162 167 159 148 130 80 12 357 348 343 338
221 236 243 252 274 280 300 310 322 331 322 306 293 302 296 267 285 262 256 210 173 171 182 188 178 172 169 162 163 172 164 177 170 166 176 168 161 156 37 359 356 352 357 356
224 237 244 248 257 276 288 307 331 316 312 312 314 324 345 318 274 239 224 224 221 204 185 186 193 185 172 169 170 178 179 179 179 177 175 178 189 218 294 316 356 355 0 358
235 234 238 258 244 256 281 294 336 330 324 312 326 304 330 335 299 232 222 208 222 225 217 197 187 187 180 174 171 182 190 181 179 182 182 188 204 234 299 320 347 346 355 356
223 240 239 237 243 249 270 295 329 331 328 316 304 298 327 334 310 286 237 217 201 203 209 211 191 185 181 178 178 185 190 185 182 178 186 200 216 240 294 326 323 336 349 349
225 209 220 220 221 235 259 292 311 316 324 298 291 257 310 345 329 292 242 218 212 204 202 195 185 183 183 186 187 191 195 189 186 185 188 191 212 251 296 316 309 323 340 341
233 233 230 221 224 231 243 270 295 276 213 270 292 289 305 340 322 275 281 232 206 203 201 195 190 190 191 192 192 191 192 193 194 196 196 180 196 246 294 316 317 325 331 333
222 241 236 231 225 226 234 227 234 267 266 305 290 260 312 317 325 283 275 234 210 193 190 194 195 194 194 195 200 198 196 196 198 202 200 192 200 249 285 309 310 324 325 325
229 237 237 215 226 222 220 217 243 250 277 282 266 287 310 320 340 119 54 172 172 186 188 195 193 197 195 197 202 208 204 202 203 204 201 198 203 234 268 287 297 315 314 316
248 257 226 209 184 198 212 224 215 220 261 272 259 290 286 330 323 282 86 135 176 187 197 204 201 199 202 202 205 207 206 203 205 202 203 199 214 238 259 275 287 305 300 299
225 232 232 174 200 212 208 219 229 221 218 277 296 278 311 330 350 335 203 141 157 173 183 201 206 203 204 206 211 212 210 208 211 213 213 218 229 241 254 268 278 295 289 281
211 227 244 242 250 257 256 221 244 217 211 220 251 277 314 324 297 319 229 238 227 203 193 187 191 202 208 212 218 217 215 214 213 216 217 216 227 240 250 263 276 287 280 273
212 214 230 247 242 248 232 251 214 218 232 214 234 274 302 300 299 279 258 257 257 247 220 197 195 200 210 215 217 220 224 219 217 218 217 221 231 238 248 260 270 280 270 262
264 225 222 240 239 221 221 193 178 188 207 197 230 275 278 293 280 273 260 261 258 242 214 203 206 209 212 217 223 225 224 215 217 218 219 226 236 240 245 258 260 259 257 254
259 251 240 239 243 225 197 185 183 191 222 234 269 280 296 296 293 255 260 257 252 259 243 229 212 213 227 225 219 222 218 221 220 223 226 234 238 240 245 256 255 257 251 249
246 256 209 187 169 176 178 182 183 200 247 276 279 283 289 300 306 288 255 249 240 247 262 253 239 249 249 253 249 232 230 230 230 231 233 238 242 245 252 255 255 259 248 248
226 200 206 210 198 184 196 199 208 238 275 276 274 275 273 280 290 302 262 241 240 239 253 252 254 256 252 258 258 255 250 240 235 237 242 243 245 249 256 250 254 256 247 244
259 261 229 184 189 226 227 207 208 206 229 271 282 296 289 289 289 286 277 256 240 248 258 249 255 245 247 252 248 245 246 245 242 240 241 243 245 247 244 241 253 254 246 245
260 265 247 207 212 268 234 223 208 226 248 294 292 298 295 304 301 289 281 274 262 247 252 260 239 236 238 245 247 247 250 254 256 257 255 251 246 250 250 286 268 235 237 239
256 249 239 232 224 227 252 214 238 236 268 287 287 273 280 294 244 258 265 265 267 250 246 255 232 234 234 242 248 255 265 278 288 283 274 264 254 264 265 272 279 234 224 238
238 243 249 248 249 249 235 227 218 226 270 270 265 269 280 239 226 217 238 247 262 280 264 258 250 245 242 235 234 244 252 255 257 257 248 320 227 260 279 293 263 233 220 237
239 230 235 232 228 249 234 219 215 215 244 254 244 247 263 256 228 208 225 223 216 187 325 276 265 249 243 238 238 243 251 259 259 260 273 297 317 268 300 287 239 232 239 238
232 230 232 228 220 218 189 213 235 256 264 262 243 238 238 253 244 241 251 261 268 322 312 300 237 324 283 257 251 261 273 278 291 307 312 319 312 298 277 285 244 245 251 254
241 242 243 240 119 239 241 267 281 283 280 256 254 252 249 251 253 259 271 272 258 274 273 280 280 299 318 307 310 319 308 308 310 315 317 314 305 222 267 331 248 244 258 274
235 225 228 226 287 220 248 275 289 302 312 298 253 246 250 259 265 260 263 281 276 274 269 273 275 285 322 315 322 320 311 309 305 305 299 273 221 218 233 254 257 239 246 252
254 258 270 276 276 263 264 263 274 288 299 306 290 251 243 250 257 264 262 272 290 283 273 289 311 275 289 326 323 300 290 287 287 286 256 240 239 218 237 262 249 236 244 246
Height
3175 3177 3177 3180 3180 3180 3179 3177 3174 3174 3171 3171 3170 3170 3169 3170 3170 3170 3173 3174 3175 3176 3178 3181 3182 3185 3187 3189 3191 3194 3197 3198 3199 3201 3202 3203 3204 3205 3205 3205 3204 3203 3202 3200
3174 3172 3176 3178 3179 3179 3178 3176 3174 3171 3169 3169 3167 3166 3165 3165 3166 3167 3170 3173 3175 3175 3175 3178 3180 3182 3185 3188 3190 3192 3195 3197 3199 3199 3201 3203 3204 3204 3205 3204 3203 3201 3199 3198
3169 3172 3173 3176 3178 3178 3177 3176 3173 3171 3168 3167 3166 3163 3162 3161 3161 3163 3166 3168 3171 3174 3175 3176 3178 3179 3182 3184 3188 3191 3193 3196 3197 3199 3200 3202 3203 3204 3204 3203 3202 3200 3198 3196
3167 3168 3170 3173 3175 3177 3176 3175 3171 3168 3168 3169 3168 3166 3160 3159 3158 3159 3162 3164 3167 3169 3172 3174 3176 3177 3179 3182 3185 3189 3191 3193 3195 3197 3198 3200 3202 3202 3202 3200 3199 3197 3197 3195
3164 3163 3166 3170 3174 3175 3174 3172 3171 3168 3168 3168 3167 3167 3159 3157 3156 3156 3158 3161 3164 3166 3169 3170 3172 3175 3177 3180 3183 3186 3189 3191 3193 3195 3197 3199 3200 3200 3200 3198 3197 3197 3196 3194
3162 3163 3164 3168 3172 3172 3172 3171 3170 3167 3167 3167 3166 3168 3158 3156 3155 3154 3155 3157 3160 3163 3166 3169 3170 3172 3174 3176 3179 3182 3185 3188 3191 3193 3195 3197 3198 3198 3197 3197 3195 3195 3194 3192
3159 3159 3162 3164 3168 3169 3170 3170 3169 3167 3167 3167 3164 3164 3158 3156 3154 3152 3152 3152 3154 3158 3162 3165 3166 3168 3171 3173 3176 3179 3182 3185 3188 3190 3192 3194 3195 3196 3195 3194 3193 3193 3192 3190
3157 3157 3156 3158 3162 3166 3167 3168 3167 3166 3164 3164 3163 3158 3156 3153 3151 3151 3150 3149 3150 3154 3158 3161 3164 3166 3169 3172 3174 3177 3179 3182 3185 3187 3190 3191 3192 3194 3193 3192 3191 3191 3190 3189
3153 3154 3153 3155 3158 3163 3163 3164 3165 3164 3162 3164 3160 3155 3153 3151 3150 3149 3149 3148 3149 3152 3155 3158 3161 3164 3167 3169 3172 3175 3177 3180 3182 3185 3186 3188 3189 3191 3190 3190 3189 3189 3188 3187
3152 3153 3152 3152 3154 3158 3159 3161 3162 3162 3161 3159 3156 3154 3152 3151 3149 3149 3149 3149 3150 3153 3155 3157 3159 3162 3164 3167 3169 3172 3175 3177 3180 3182 3184 3185 3187 3187 3188 3188 3187 3187 3186 3185
3148 3151 3152 3152 3152 3154 3155 3155 3157 3158 3159 3155 3154 3152 3151 3151 3149 3148 3149 3150 3151 3152 3153 3155 3156 3159 3162 3164 3165 3168 3170 3173 3175 3178 3180 3182 3183 3184 3185 3185 3185 3184 3183 3183
3143 3146 3147 3149 3149 3150 3151 3153 3153 3154 3155 3154 3154 3151 3151 3150 3149 3148 3149 3150 3150 3151 3152 3154 3155 3156 3159 3161 3162 3164 3166 3168 3172 3174 3177 3179 3180 3181 3182 3182 3182 3183 3182 3182
3140 3142 3144 3144 3147 3146 3146 3148 3148 3149 3150 3150 3151 3149 3149 3149 3149 3148 3148 3148 3148 3149 3150 3152 3153 3155 3156 3158 3159 3160 3163 3166 3169 3170 3172 3174 3176 3178 3179 3179 3179 3180 3180 3180
3138 3138 3139 3139 3140 3141 3142 3144 3145 3146 3148 3147 3147 3146 3147 3146 3146 3146 3146 3146 3146 3147 3149 3149 3151 3152 3154 3155 3157 3158 3161 3163 3166 3167 3168 3170 3172 3174 3175 3176 3175 3175 3176 3176
3137 3136 3135 3135 3136 3137 3138 3140 3141 3143 3145 3146 3145 3144 3144 3144 3143 3142 3143 3144 3144 3144 3145 3148 3148 3150 3151 3153 3154 3156 3158 3160 3162 3163 3164 3165 3168 3169 3170 3172 3172 3172 3171 3171
3135 3134 3133 3133 3133 3135 3136 3137 3139 3141 3141 3142 3142 3142 3141 3140 3138 3138 3139 3140 3142 3142 3143 3144 3146 3147 3149 3151 3152 3153 3154 3156 3157 3158 3159 3161 3163 3165 3166 3168 3168 3170 3168 3167
3133 3133 3133 3134 3134 3134 3136 3134 3135 3137 3138 3139 3139 3139 3138 3138 3136 3135 3134 3135 3138 3141 3142 3142 3143 3144 3145 3146 3147 3149 3149 3150 3151 3153 3154 3156 3157 3158 3159 3160 3158 3163 3162 3162
3131 3132 3132 3133 3134 3135 3130 3131 3132 3133 3134 3135 3136 3136 3135 3133 3132 3132 3130 3131 3134 3136 3138 3138 3138 3140 3141 3142 3142 3142 3143 3144 3145 3147 3148 3149 3150 3150 3149 3149 3155 3154 3154 3153
3129 3129 3130 3130 3130 3130 3128 3128 3129 3129 3130 3130 3132 3132 3132 3130 3128 3128 3128 3128 3129 3130 3132 3133 3134 3135 3137 3137 3137 3137 3138 3139 3140 3141 3142 3143 3144 3142 3140 3143 3138 3137 3146 3147
3125 3126 3128 3126 3124 3124 3126 3125 3126 3126 3126 3127 3128 3127 3127 3126 3127 3125 3124 3123 3123 3123 3125 3127 3129 3130 3131 3132 3132 3133 3134 3136 3137 3136 3136 3136 3132 3133 3138 3136 3133 3134 3136 3141
3122 3122 3123 3123 3122 3120 3120 3122 3123 3125 3128 3123 3123 3123 3123 3123 3124 3123 3121 3119 3119 3119 3118 3120 3122 3124 3125 3125 3126 3127 3128 3130 3128 3127 3124 3088 3109 3130 3131 3129 3125 3127 3130 3134
3119 3120 3120 3120 3120 3120 3119 3120 3121 3121 3120 3119 3119 3120 3120 3120 3120 3120 3119 3117 3117 3116 3117 3116 3116 3117 3118 3119 3120 3119 3120 3120 3122 3118 3112 3088 3109 3102 3124 3124 3121 3125 3127 3130
3117 3117 3118 3119 3118 3116 3115 3117 3116 3116 3118 3117 3116 3117 3117 3116 3117 3118 3117 3115 3115 3114 3113 3113 3113 3114 3115 3114 3115 3113 3116 3115 3116 3116 3114 3112 3107 3113 3118 3118 3119 3122 3125 3127
3111 3113 3114 3116 3116 3115 3114 3113 3113 3113 3113 3112 3112 3112 3112 3111 3111 3112 3112 3111 3111 3110 3111 3111 3110 3108 3111 3113 3112 3111 3110 3111 3110 3110 3110 3105 3107 3108 3112 3114 3117 3120 3122 3124
3108 3109 3110 3112 3113 3112 3112 3111 3111 3110 3108 3107 3106 3106 3108 3108 3108 3109 3109 3107 3106 3107 3106 3106 3105 3102 3105 3108 3108 3108 3107 3106 3105 3107 3109 3107 3106 3106 3107 3112 3112 3115 3118 3119
3105 3107 3109 3108 3108 3108 3107 3107 3106 3106 3104 3103 3101 3101 3101 3103 3104 3105 3106 3106 3105 3105 3104 3104 3104 3101 3105 3103 3102 3104 3104 3103 3102 3101 3101 3103 3103 3103 3106 3108 3109 3111 3113 3115